Terminal Aerodrome Forecast
Issued by NWS Rapid City, SD

Home | Current Version | Previous Version | Graphics & Text | Print | Product List | Glossary On
Versions: 1 2 3 4 5 6 7 8 9 10 11 12 13 14 15 16 17
000
FTUS43 KUNR 231100
TAFRAP
TAF
KRAP 231120Z 2312/2412 19011KT P6SM BKN120 WS010/22035KT
     FM231500 33026G38KT P6SM BKN060
     FM240000 34010KT P6SM SCT150=

USA.gov is the U.S. government's official web portal to all federal, state and local government web resources and services.